[[{"header":{"parameterUnit":"m.s-1","parameterCategory":1,"la1":30.2991,"la2":30.254,"lo1":-89.0895,"lo2":-89.0444,"dy":0.0017,"dx":0.0017,"nx":28,"ny":28,"refTime":"2025-09-07T09:00:00:Z","depth":0,"parameterNumber":2,"parameterNumberName":"U-component_of_WINDS"},"data":[0,0,0,0,0,0,0,0,0,0,0,0,0,0,0,0,0,0,0,0,0,0,0,0,0,0,0,0,0,0,0,0,0,0,0,0,0,0,0,0,0,0,0,0,0,0,0,0,0,0,0,0,0,0,0,0,0,0,-0.673,-0.6729,0,-0.6647,-0.6646,-0.6645,-0.6611,-0.6612,-0.6612,-0.6612,-0.6524,-0.6521,-0.6519,0,0,0,0,0,0,0,0,0,0,0,0,0,-0.6859,-0.6857,-0.673,-0.6729,-0.6728,-0.6647,-0.6646,-0.6644,-0.6611,-0.6612,-0.6612,-0.6612,-0.6524,-0.6521,-0.6518,0,0,0,0,0,0,0,0,0,0,0,0,0,-0.6792,-0.6856,-0.673,-0.6702,-0.6699,-0.6647,-0.6645,-0.6644,-0.6611,-0.6612,-0.6612,-0.6612,-0.6525,-0.6522,-0.6518,-0.6487,0,0,-0.6506,-0.6504,0,0,0,0,0,0,0,0,-0.6796,-0.6787,-0.6707,-0.6704,-0.67,-0.664,-0.6658,-0.6591,-0.6611,-0.6644,-0.6612,-0.6612,-0.6562,-0.6555,-0.6538,-0.6483,-0.648,-0.6506,-0.6503,-0.6502,-0.6501,0,0,0,0,0,0,0,-0.68,-0.679,-0.6697,-0.6706,-0.6702,-0.6692,-0.6683,-0.6645,-0.6602,-0.6642,-0.6639,-0.663,-0.656,-0.6542,-0.6536,-0.6478,-0.6506,-0.6502,-0.65,-0.6499,-0.6394,-0.6393,0,0,0,0,0,0,-0.681,-0.6795,-0.67,-0.6695,-0.675,-0.669,-0.668,-0.6659,-0.6602,-0.6594,-0.6629,-0.6628,-0.6549,-0.6541,-0.6533,-0.6493,-0.6502,-0.6498,-0.6496,-0.6394,-0.6394,-0.6393,0,0,0,0,0,0,-0.6813,-0.6802,-0.6703,-0.6744,-0.6731,-0.6687,-0.6664,-0.6657,-0.6639,-0.6593,-0.6585,-0.662,-0.6549,-0.6538,-0.6499,-0.649,-0.6496,-0.6493,-0.6395,-0.6394,-0.6393,-0.6415,0,0,0,0,0,0,-0.6817,-0.6803,-0.6792,-0.6744,-0.6729,-0.6672,-0.6664,-0.6655,-0.6633,-0.6631,-0.6582,-0.6574,-0.6548,-0.6505,-0.6495,-0.6485,-0.649,-0.6395,-0.6395,-0.6394,-0.6415,-0.6415,-0.6415,0,0,0,0,0,-0.6821,-0.68,-0.6791,-0.678,-0.6714,-0.6671,-0.6662,-0.6633,-0.6633,-0.662,-0.6591,-0.6576,-0.6493,-0.6501,-0.649,-0.6478,-0.6396,-0.6395,-0.6394,-0.6414,-0.6415,-0.6415,0,0,0,0,0,0,-0.6847,-0.6794,-0.6783,-0.6746,-0.6714,-0.6666,-0.6649,-0.6635,-0.6601,-0.66,-0.6565,-0.6554,-0.6518,-0.6494,-0.6505,-0.6446,-0.6443,-0.644,-0.6463,-0.6463,-0.6463,-0.6469,-0.6487,0,0,0,0,0,-0.6849,-0.682,-0.6774,-0.6746,-0.673,-0.6693,-0.6673,-0.6654,-0.6618,-0.6604,-0.6572,-0.6537,-0.6503,-0.6482,-0.6448,-0.6411,-0.64,-0.6397,-0.6398,-0.6398,-0.6395,-0.6374,-0.6372,-0.639,-0.639,-0.639,0,0,-0.6851,-0.6818,-0.6802,-0.675,-0.6723,-0.6693,-0.6681,-0.665,-0.6627,-0.6599,-0.656,-0.6536,-0.6495,-0.6457,-0.6438,-0.6436,-0.6388,-0.6397,-0.6397,-0.6394,-0.6373,-0.6371,-0.637,-0.6389,-0.6389,-0.6389,0,0,-0.684,-0.6813,-0.6786,-0.6759,-0.6718,-0.6694,-0.6688,-0.6642,-0.6625,-0.6586,-0.6564,-0.6536,-0.6478,-0.645,-0.6428,-0.6407,-0.6392,-0.6397,-0.6398,-0.6378,-0.6376,-0.6375,-0.6367,-0.6365,-0.6395,-0.6395,-0.6395,0,-0.6848,-0.6803,-0.6774,-0.6744,-0.6722,-0.6696,-0.6669,-0.6644,-0.6593,-0.6578,-0.6576,-0.6504,-0.6474,-0.6429,-0.6425,-0.6408,-0.6399,-0.6402,-0.6379,-0.6377,-0.6375,-0.6368,-0.6365,-0.6396,-0.6396,-0.6396,-0.6396,0,-0.6815,-0.6784,-0.6767,-0.672,-0.6696,-0.6667,-0.6633,-0.6612,-0.6595,-0.6571,-0.6531,-0.6495,-0.6454,-0.6442,-0.6424,-0.6394,-0.6394,-0.6386,-0.6382,-0.6375,-0.6367,-0.6364,-0.6397,-0.6397,-0.6397,-0.6396,0,0,-0.6817,-0.6756,-0.675,-0.6728,-0.6682,-0.6656,-0.6627,-0.6587,-0.6569,-0.6536,-0.6509,-0.6461,-0.6454,-0.6429,-0.6409,-0.6391,-0.6377,-0.6385,-0.6383,-0.6384,-0.6341,-0.6347,-0.6344,-0.6367,-0.6366,-0.6365,-0.6344,0,-0.68,-0.6746,-0.6719,-0.6677,-0.6647,-0.6623,-0.6597,-0.6565,-0.6541,-0.6512,-0.6486,-0.6452,-0.6445,-0.643,-0.6412,-0.6382,-0.6367,-0.6383,-0.6341,-0.634,-0.6351,-0.634,-0.6346,-0.6328,-0.6341,-0.634,-0.634,0,-0.6772,-0.674,-0.6695,-0.6652,-0.6638,-0.6615,-0.6577,-0.655,-0.6513,-0.6497,-0.647,-0.645,-0.6417,-0.6416,-0.637,-0.6382,-0.6363,-0.6346,-0.6344,-0.6339,-0.6339,-0.6333,-0.6321,-0.6318,-0.6335,-0.6335,-0.6336,0,-0.6778,-0.6723,-0.6689,-0.6672,-0.662,-0.6605,-0.6583,-0.6546,-0.6524,-0.6491,-0.6476,-0.6439,-0.6418,-0.6389,-0.636,-0.6362,-0.6316,-0.6313,-0.6301,-0.6302,-0.6292,-0.6293,-0.6276,-0.6281,-0.6281,-0.6281,-0.6281,0,-0.6762,-0.6735,-0.6691,-0.667,-0.6639,-0.6609,-0.6579,-0.6554,-0.6522,-0.6496,-0.6472,-0.6448,-0.641,-0.6381,-0.6357,-0.6322,-0.6313,-0.6299,-0.6293,-0.6301,-0.6302,-0.6287,-0.6288,-0.628,-0.628,-0.6281,-0.6281,0,-0.6763,-0.6733,-0.6694,-0.6649,-0.6637,-0.6616,-0.6577,-0.6556,-0.6531,-0.6498,-0.6488,-0.6449,-0.6413,-0.6381,-0.6333,-0.6317,-0.6282,-0.6274,-0.6294,-0.6291,-0.6281,-0.6282,-0.6253,-0.6248,-0.6257,-0.6257,-0.6257,0,-0.6754,-0.6733,-0.6686,-0.6667,-0.6646,-0.6615,-0.6593,-0.6562,-0.6539,-0.6496,-0.6479,-0.6442,-0.641,-0.6354,-0.6321,-0.6284,-0.6276,-0.6268,-0.627,-0.6279,-0.6275,-0.6277,-0.6274,-0.6268,-0.6268,-0.6268,-0.6268,0,-0.6741,-0.6728,-0.6697,-0.6661,-0.6635,-0.6605,-0.6574,-0.656,-0.6523,-0.6499,-0.6462,-0.6438,-0.639,-0.6353,-0.6312,-0.6289,-0.6272,-0.6268,-0.6264,-0.6271,-0.6283,-0.6276,-0.6295,-0.6269,-0.6269,-0.6269,-0.6269,-0.6269,-0.6737,-0.6717,-0.6681,-0.6648,-0.6621,-0.6593,-0.6571,-0.6544,-0.6513,-0.6472,-0.6455,-0.6418,-0.6382,-0.6326,-0.6303,-0.6273,-0.6269,-0.6263,-0.6261,-0.6259,-0.6261,-0.6289,-0.6265,-0.6265,-0.6265,-0.6265,-0.6265,0,-0.6723,-0.6698,-0.6668,-0.6626,-0.66,-0.6588,-0.6553,-0.6531,-0.6499,-0.6467,-0.6437,-0.6395,-0.6359,-0.6324,-0.6286,-0.6269,-0.626,-0.626,-0.626,-0.6255,-0.6266,-0.6274,-0.6267,-0.6267,-0.6267,-0.6267,-0.6267,-0.6267,-0.6712,-0.6678,-0.666,-0.6612,-0.6588,-0.6552,-0.6533,-0.6507,-0.6481,-0.6436,-0.6406,-0.6384,-0.635,-0.631,-0.6276,-0.6267,-0.6254,-0.6255,-0.6244,-0.6254,-0.6254,-0.6255,-0.6262,-0.6253,-0.6253,-0.6235,-0.6235,-0.6235]},{"header":{"parameterUnit":"m.s-1","parameterCategory":1,"la1":30.2991,"la2":30.254,"lo1":-89.0895,"lo2":-89.0444,"dy":0.0017,"dx":0.0017,"nx":28,"ny":28,"refTime":"2025-09-07T09:00:00:Z","depth":0,"parameterNumber":3,"parameterNumberName":"V-component_of_WINDS"},"data":[0,0,0,0,0,0,0,0,0,0,0,0,0,0,0,0,0,0,0,0,0,0,0,0,0,0,0,0,0,0,0,0,0,0,0,0,0,0,0,0,0,0,0,0,0,0,0,0,0,0,0,0,0,0,0,0,0,0,-0.608,-0.608,0,-0.6063,-0.6063,-0.6063,-0.61,-0.6101,-0.6102,-0.6104,-0.6081,-0.6079,-0.6077,0,0,0,0,0,0,0,0,0,0,0,0,0,-0.614,-0.6139,-0.608,-0.608,-0.6079,-0.6063,-0.6063,-0.6062,-0.61,-0.6101,-0.6103,-0.6104,-0.6081,-0.6079,-0.6077,0,0,0,0,0,0,0,0,0,0,0,0,0,-0.6118,-0.6139,-0.608,-0.6096,-0.6098,-0.6063,-0.6063,-0.6062,-0.6099,-0.6101,-0.6103,-0.6105,-0.6082,-0.608,-0.6077,-0.6024,0,0,-0.6069,-0.6068,0,0,0,0,0,0,0,0,-0.6119,-0.6115,-0.6094,-0.6095,-0.6096,-0.6086,-0.6076,-0.6049,-0.6099,-0.6099,-0.6104,-0.6106,-0.6081,-0.6078,-0.6071,-0.6023,-0.6022,-0.6069,-0.6067,-0.6066,-0.6065,0,0,0,0,0,0,0,-0.612,-0.6116,-0.6073,-0.6094,-0.6095,-0.6103,-0.6102,-0.6071,-0.6079,-0.6099,-0.6101,-0.6099,-0.6082,-0.6073,-0.6071,-0.6022,-0.6069,-0.6067,-0.6065,-0.6064,-0.5932,-0.593,0,0,0,0,0,0,-0.6121,-0.6117,-0.6074,-0.6073,-0.6113,-0.61,-0.6099,-0.6087,-0.608,-0.6081,-0.6098,-0.6101,-0.6077,-0.6074,-0.607,-0.601,-0.6066,-0.6064,-0.6062,-0.5934,-0.5932,-0.593,0,0,0,0,0,0,-0.6122,-0.6116,-0.6074,-0.6096,-0.6091,-0.6098,-0.6084,-0.6086,-0.6078,-0.6079,-0.608,-0.6088,-0.6078,-0.6074,-0.6036,-0.6009,-0.6062,-0.606,-0.5936,-0.5933,-0.5931,-0.5887,0,0,0,0,0,0,-0.6123,-0.6117,-0.6097,-0.6095,-0.609,-0.6042,-0.6082,-0.6084,-0.6074,-0.6078,-0.607,-0.6071,-0.6079,-0.604,-0.6034,-0.6007,-0.6058,-0.5939,-0.5935,-0.5932,-0.5891,-0.5883,-0.5877,0,0,0,0,0,-0.6125,-0.6084,-0.6096,-0.6091,-0.6066,-0.604,-0.6037,-0.6049,-0.6071,-0.6052,-0.6053,-0.6071,-0.6013,-0.6036,-0.6029,-0.6001,-0.594,-0.5936,-0.5932,-0.5894,-0.5885,-0.5877,0,0,0,0,0,0,-0.6081,-0.6084,-0.6098,-0.6055,-0.6047,-0.6047,-0.6022,-0.6038,-0.6023,-0.6027,-0.6041,-0.6039,-0.5999,-0.5996,-0.6021,-0.595,-0.598,-0.5974,-0.5954,-0.5945,-0.5938,-0.594,-0.6056,0,0,0,0,0,-0.6066,-0.6047,-0.605,-0.6011,-0.6007,-0.6015,-0.6004,-0.6015,-0.6007,-0.6003,-0.6002,-0.5992,-0.5972,-0.5958,-0.5939,-0.589,-0.589,-0.5868,-0.586,-0.5854,-0.5849,-0.5825,-0.5816,-0.5915,-0.5915,-0.5915,0,0,-0.6035,-0.6035,-0.6021,-0.6003,-0.5998,-0.5977,-0.6012,-0.5987,-0.5971,-0.5999,-0.5965,-0.5963,-0.5953,-0.591,-0.5891,-0.5906,-0.5822,-0.5849,-0.5844,-0.5842,-0.582,-0.5811,-0.5802,-0.5912,-0.5913,-0.5913,0,0,-0.5969,-0.5966,-0.5935,-0.5931,-0.5924,-0.593,-0.5923,-0.592,-0.5921,-0.5887,-0.5908,-0.5888,-0.5852,-0.5845,-0.5837,-0.5769,-0.5786,-0.5763,-0.5725,-0.5701,-0.5693,-0.5687,-0.5664,-0.5656,-0.5757,-0.5757,-0.5757,0,-0.5931,-0.5901,-0.5917,-0.5892,-0.5883,-0.5909,-0.5878,-0.5872,-0.5858,-0.5852,-0.5869,-0.5827,-0.5821,-0.5779,-0.5763,-0.5754,-0.5746,-0.5764,-0.5693,-0.5687,-0.5681,-0.5659,-0.5651,-0.5755,-0.5755,-0.5755,-0.5755,0,-0.5856,-0.5835,-0.581,-0.58,-0.5789,-0.576,-0.577,-0.5757,-0.5768,-0.5772,-0.5737,-0.5732,-0.5714,-0.5704,-0.5714,-0.5663,-0.5673,-0.5691,-0.5722,-0.5668,-0.5649,-0.5641,-0.5751,-0.5752,-0.5753,-0.5753,0,0,-0.5761,-0.5761,-0.5752,-0.5749,-0.5744,-0.5727,-0.57,-0.5684,-0.5673,-0.5663,-0.5641,-0.5611,-0.5629,-0.5619,-0.5628,-0.5607,-0.5556,-0.5628,-0.5628,-0.5617,-0.5502,-0.549,-0.548,-0.5567,-0.5565,-0.5564,-0.5504,0,-0.5697,-0.5653,-0.5667,-0.5622,-0.5603,-0.5628,-0.5604,-0.5598,-0.5601,-0.5584,-0.5586,-0.5566,-0.559,-0.5585,-0.5565,-0.5567,-0.5534,-0.5571,-0.5546,-0.5545,-0.555,-0.547,-0.5456,-0.5399,-0.5496,-0.5494,-0.5494,0,-0.5617,-0.5607,-0.5561,-0.5562,-0.5554,-0.5533,-0.5521,-0.5504,-0.5498,-0.5501,-0.5492,-0.5506,-0.5478,-0.5508,-0.5471,-0.5496,-0.5487,-0.5486,-0.5484,-0.5483,-0.5517,-0.5468,-0.5381,-0.5373,-0.5481,-0.5482,-0.5483,0,-0.5555,-0.553,-0.5499,-0.5495,-0.5494,-0.5479,-0.5478,-0.5473,-0.5464,-0.5452,-0.5446,-0.5431,-0.5422,-0.541,-0.5419,-0.544,-0.5381,-0.5411,-0.5383,-0.5383,-0.5371,-0.5371,-0.5282,-0.5361,-0.5361,-0.5362,-0.5362,0,-0.5484,-0.5455,-0.5472,-0.5454,-0.5422,-0.5437,-0.5405,-0.5406,-0.5403,-0.5384,-0.5403,-0.5385,-0.5397,-0.538,-0.5387,-0.5356,-0.5351,-0.5353,-0.5356,-0.5353,-0.5353,-0.5348,-0.5353,-0.5359,-0.536,-0.536,-0.5361,0,-0.541,-0.542,-0.5389,-0.5392,-0.5392,-0.5369,-0.537,-0.5353,-0.5357,-0.5334,-0.5329,-0.5336,-0.5317,-0.5325,-0.5303,-0.5308,-0.5269,-0.5276,-0.5272,-0.5275,-0.5247,-0.525,-0.5153,-0.5142,-0.5226,-0.5225,-0.5225,0,-0.5365,-0.5344,-0.5345,-0.5335,-0.5333,-0.5316,-0.5307,-0.5321,-0.5311,-0.5303,-0.5287,-0.527,-0.5257,-0.5225,-0.5228,-0.5212,-0.5219,-0.5186,-0.5217,-0.5216,-0.5221,-0.5223,-0.5222,-0.5181,-0.518,-0.5179,-0.5178,0,-0.5284,-0.529,-0.5278,-0.5267,-0.5257,-0.5248,-0.5242,-0.5232,-0.5246,-0.5233,-0.5215,-0.5205,-0.5185,-0.5169,-0.5155,-0.5152,-0.5168,-0.5168,-0.5162,-0.5159,-0.5159,-0.5161,-0.5257,-0.5171,-0.5172,-0.5172,-0.5173,-0.5173,-0.5224,-0.5208,-0.5207,-0.5192,-0.5189,-0.5183,-0.5167,-0.5171,-0.5157,-0.5144,-0.5152,-0.5131,-0.5126,-0.511,-0.5105,-0.5089,-0.5101,-0.5091,-0.5088,-0.5086,-0.5084,-0.516,-0.5086,-0.5086,-0.5086,-0.5086,-0.5086,0,-0.5146,-0.5147,-0.5134,-0.5125,-0.5114,-0.5131,-0.5125,-0.5114,-0.5096,-0.5091,-0.5079,-0.5059,-0.5043,-0.5045,-0.503,-0.5016,-0.5023,-0.5012,-0.5014,-0.5014,-0.5072,-0.5081,-0.5007,-0.5007,-0.5007,-0.5007,-0.5007,-0.5007,-0.5105,-0.5078,-0.5085,-0.5057,-0.5057,-0.5039,-0.5034,-0.5028,-0.5025,-0.5002,-0.499,-0.4992,-0.4989,-0.4975,-0.4961,-0.4962,-0.4957,-0.4943,-0.4947,-0.5001,-0.5009,-0.5017,-0.5025,-0.4942,-0.4941,-0.489,-0.489,-0.489]}]]